Regional Weather Roundup
Issued by NWS Northern Indiana

Home | Current Version | Previous Version | Text Only | Print | Product List | Glossary Off
Versions: 1 2 3 4 5 6 7 8 9 10 11 12 13 14 15 16 17 18 19 20 21 22 23 24 25 26 27 28 29 30 31 32 33 34 35 36 37 38 39 40 41 42 43 44 45 46 47 48 49 50

996
ASUS43 KIWX 212300
RWRIWX

KIWX WEATHER ROUNDUP
NATIONAL WEATHER SERVICE NORTHERN INDIANA
700 PM EDT THU MAY 21 2015

NOTE: "FAIR" INDICATES FEW OR NO CLOUDS BELOW 12,000 FEET WITH NO
SIGNIFICANT WEATHER AND/OR OBSTRUCTIONS TO VISIBILITY.

* THESE STATIONS ARE NOT UNDER NWS QUALITY CONTROL. THEY ALSO MAY NOT
  REPORT WEATHER SUCH AS PRECIPITATION OR FOG.

INZ001>027-220000-
NORTHERN INDIANA

CITY           SKY/WX    TMP DP  RH WIND       PRES   REMARKS
GARY*          SUNNY     68  32  26 W14G25    30.04F
SOUTH BEND     SUNNY     65  29  25 NW13      30.04F
GOSHEN         SUNNY     62  34  35 NW15      30.03F
MONTICELLO*    MOSUNNY   65  38  36 W8G18     30.05F
WARSAW*        SUNNY     63  34  34 W14G21    30.04S
ANGOLA*        SUNNY     63  52  67 W12       30.01S
FORT WAYNE     MOSUNNY   62  40  44 W12       30.04F
PERU/GRISSOM   SUNNY     64  38  38 NW13G18   30.04F

$$
INZ028>050-220000-
CENTRAL INDIANA

CITY           SKY/WX    TMP DP  RH WIND       PRES   REMARKS
LAFAYETTE      MOSUNNY   64  35  34 W13       30.06F
KOKOMO*        SUNNY     64  37  36 NW16      30.05F
MUNCIE*        SUNNY     61  37  41 NW13      30.06F
INDIANAPOLIS   MOSUNNY   63  35  35 W14       30.07F

$$
MIZ043>046-050>051-056>058-064>065-071>073-077>080-220000-
SOUTHWEST LOWER MICHIGAN

CITY           SKY/WX    TMP DP  RH WIND       PRES   REMARKS
BATTLE CREEK   SUNNY     62  34  35 W13       30.00F
BENTON HARBOR  SUNNY     61  37  41 SW13      30.02F
COLDWATER*     SUNNY     61  29  30 W13G18    30.00F
HILLSDALE*     SUNNY     62  31  31 W13G20    29.99F
HOLLAND        SUNNY     61  39  44 SW13      29.99F
GRAND RAPIDS   MOSUNNY   62  37  39 W17       29.98F
KALAMAZOO      SUNNY     63  34  33 W10       30.01F
STURGIS*       SUNNY     63  32  31 W12       30.01F
THREE RIVERS*  FAIR      61  33  35 W12G17    30.02S

$$
OHZ001>008-015>018-024>025-220000-
NORTHWEST OHIO

CITY           SKY/WX    TMP DP  RH WIND       PRES   REMARKS
DEFIANCE       MOSUNNY   63  37  38 NW12G21   30.01F
FINDLAY        MOSUNNY   61  38  42 W17       30.01F
TOLEDO EXPRESS SUNNY     63  34  33 W14G22    29.99S
TOLEDO METCALF MOSUNNY   63  36  36 W12       29.99S
LIMA           SUNNY     59  36  42 W13       30.04F

$$
AND FOR LAKE MICHIGAN COASTAL AND OPEN LAKE BUOY OBSERVATIONS

STATION/POSITION TEMP    WIND        PRES    VSBY  WAVE
                 AIR SEA DIR/SP/G                  HT/PER
                 (F)     (DEG/KT/KT) (MB)    (MI)  (FT/S)
CALUMET HARBOR    68     250/  4/  9   N/A
MICHIGAN CITY     60     210/  6/  7   N/A
BURNS HARBOR      68      CALM  /  2 1017.6F
SAINT JOSEPH      57     180/ 11/ 15 1017.6R
SOUTH LAKE BUOY   44 38  190/ 14/ 16 1015.8F         1/ 3
4 MI NW BRIDGMAN  55 53  240/ 10/ 10   N/A           1/ 3
MICHIGAN CITY     58 53  220/  4/  4   N/A           0

$$
&&



USA.gov is the U.S. government's official web portal to all federal, state and local government web resources and services.